Location: ??
(31.9467°N, 34.8903°E)
Time: 11:16:35
(UTC+00:00)

Cosmos 1980 Rocket - Pass Details

Date: 29 October 2020
Orbit: 831 x 848 km, 71.0° (Epoch: 27 November)

Event Time Altitude Azimuth Distance (km) Brightness Sun altitude
Rises 17:28:31 0° 235° (SW) 3,380 6.0 -33.5°
Reaches altitude 10° 17:31:31 10° 250° (WSW) 2,446 5.3 -34.1°
Maximum altitude 17:35:44 22° 300° (WNW) 1,770 4.4 -35.0°
Enters shadow 17:39:30 12° 345° (NNW) 2,323 4.6 -35.8°
